Location: Stokes Fall Starparty
(41.2298°N, 74.7506°W)
Time: 18:21:14
(UTC-04:00)

Daily predictions for brighter satellites

Satellite Brightness Start Highest point End
(mag) Time Altitude Azimuth Time Altitude Azimuth Time Altitude Azimuth
ATLAS 2AS CENTAUR R/B 3.9 20:12:19 10° SSE 20:18:15 25° ESE 20:24:27 10° NE
Cosmos 839 Rocket 4.1 20:12:39 10° SSW 20:18:50 58° ESE 20:24:55 10° NE
SL-16 R/B 2.9 20:15:18 10° SSE 20:20:14 32° ESE 20:25:11 10° NE
Cosmos 1441 Rocket 3.4 20:17:49 10° NNW 20:21:33 72° W 20:25:16 10° S
Intercosmos 25 Rocket 4.2 20:18:33 10° NNW 20:21:45 44° W 20:24:48 10° SSW
Meteor 1-20 Rocket 4.3 20:18:05 10° S 20:23:39 86° W 20:29:10 10° N
Cosmos 1939 Rocket 3.9 20:21:22 10° SE 20:24:48 28° ENE 20:28:12 10° N
NOSS 3-1 (A) 3.7 20:19:04 10° SW 20:24:48 74° NW 20:31:19 10° NNE
Okean 1 3.3 20:21:43 10° N 20:25:42 74° E 20:29:40 10° SSE
Cosmos 405 Rocket 4.4 20:24:23 10° NNW 20:27:57 37° W 20:31:33 10° SSW
Cosmos 1452 Rocket 3.5 20:22:55 10° S 20:28:09 67° ESE 20:33:25 10° NNE
Meteor 2-11 Rocket 4.5 20:22:26 10° N 20:28:30 64° E 20:34:30 10° SSE
Cosmos 1536 4.1 20:27:31 10° SE 20:30:41 22° E 20:33:51 10° NE
Cosmos 1420 Rocket 4.2 20:26:31 10° S 20:31:28 49° ESE 20:36:28 10° NNE
Cosmos 1633 2.5 20:28:10 10° S 20:31:47 88° E 20:35:26 10° N
Lacrosse 5 rocket 1.1 20:28:13 10° NW 20:31:54 89° E 20:35:45 10° SE
Cosmos 407 Rocket 4.1 20:27:18 10° NNW 20:32:36 62° WSW 20:37:49 10° S
S3M 4.2 20:28:34 10° N 20:34:42 54° E 20:40:53 10° SSE
YAOGAN 6 3.8 20:34:18 11° SE 20:37:09 25° ENE 20:40:05 10° NNE
Cosmos 1553 Rocket 4.0 20:31:07 10° N 20:37:13 61° E 20:43:13 10° SSE
Cosmos 921 Rocket 3.8 20:35:56 10° SSW 20:40:01 54° WNW 20:44:08 10° N
MINOTAUR R/B 4.2 20:37:57 10° NNW 20:40:43 72° ENE 20:43:20 11° SSE
Okean 1 Rocket 4.3 20:38:28 10° SE 20:41:47 22° E 20:45:07 10° NE
Cosmos 2266 Rocket 4.5 20:37:54 10° SSE 20:43:20 37° E 20:48:47 10° NNE
Helios 1B rocket 3.5 20:40:08 10° NE 20:43:29 24° E 20:46:49 10° SSE
Cosmos 2360 Rocket 3.4 20:39:57 10° SE 20:43:50 19° E 20:47:44 10° NE
Cosmos 1980 Rocket 3.0 20:39:06 10° SW 20:44:35 56° WNW 20:50:07 10° NNE
Resurs 01 Rocket 2.0 20:40:51 10° S 20:45:17 70° WSW 20:49:45 10° NNW
Cosmos 1300 Rocket 4.1 20:42:41 10° SSE 20:46:37 35° E 20:50:34 10° NNE
Tiangong 1 1.0 20:50:51 10° WNW 20:53:36 65° N 20:55:23 19° E
Cosmos 1025 Rocket 4.5 20:51:11 10° NNE 20:54:24 20° ENE 20:56:02 17° ESE
SeaSat 1 2.4 20:49:28 10° NNE 20:54:26 78° ESE 20:59:21 10° SSW
Meteor 1-13 Rocket 4.3 20:50:32 10° N 20:56:32 79° E 21:02:27 10° SSE
Cosmos 2151 Rocket 3.5 20:53:46 10° S 20:58:09 90° NW 21:02:34 10° N
Meteor 2-4 Rocket 3.8 20:53:00 10° N 20:58:29 58° ENE 21:03:48 11° SSE
Cosmos 44 3.8 20:56:25 10° NW 21:00:44 52° WSW 21:05:13 10° SSE
Lacrosse 5 2.4 20:57:04 10° S 21:01:40 36° SE 21:06:16 10° ENE
NOSS 2-3 (C) 3.9 20:57:47 10° SSW 21:02:19 56° ESE 21:07:31 10° NE
DELTA 2 R/B (1) 4.3 20:58:58 10° W 21:04:16 43° SSW 21:07:58 19° SE
Cosmos 1140 Rocket 3.8 20:59:53 10° NNW 21:05:06 69° WSW 21:10:18 10° S
Spot 2 Rocket 4.2 21:00:12 10° S 21:05:12 55° W 21:10:12 10° NNW
EXPRESS MD2 3.5 21:04:16 10° WSW 21:06:51 57° NNW 21:11:21 10° NE
Cosmos 614 Rocket 4.2 21:05:47 10° NNW 21:10:52 71° WSW 21:15:50 11° S
Atlas Centaur 2 3.6 21:04:09 10° WSW 21:11:21 35° S 21:15:23 20° SE
CZ-4B DEB 2.9 21:16:27 39° E 21:16:50 42° ENE 21:19:35 10° N
Okean 2 4.3 21:15:49 10° NNE 21:19:28 30° ENE 21:20:18 28° E
Cosmos 1536 Rocket 3.9 21:15:27 10° NNW 21:19:45 65° W 21:24:02 10° S
Helios 1A 2.9 21:21:40 20° SSE 21:24:31 90° ENE 21:28:48 10° NNW
Meteor 1-29 2.9 21:22:52 10° NNE 21:26:15 56° E 21:27:13 39° SSE
MetOp-A 4.4 21:25:06 27° SE 21:27:46 50° ENE 21:32:56 10° N
SAR-Lupe-4 3.8 21:27:40 41° ESE 21:28:29 51° ENE 21:31:59 10° N
ERS-1 Rocket 3.1 21:26:23 28° SE 21:28:54 57° ENE 21:33:49 10° N
Cosmos 1741 Rocket 4.1 21:24:42 10° NNW 21:29:57 78° WSW 21:33:28 21° S
H-2A R/B 3.0 21:29:52 25° E 21:31:11 28° ENE 21:35:24 10° N
BREEZE M DEB (TANK) 3.0 21:25:32 10° SW 21:33:59 45° SSE 21:34:57 37° ESE
Envisat 4.3 21:29:42 10° SSW 21:34:24 37° W 21:39:07 10° NNW
Meteor 1-11 Rocket 4.4 21:29:07 10° SSW 21:34:52 58° WNW 21:40:33 10° N
ATLAS 3B R/B 3.1 21:28:26 10° NNW 21:34:56 46° NE 21:38:06 27° ESE
GPS 2-05 Rocket1 4.0 21:33:12 10° WSW 21:35:41 27° SSW 21:35:41 27° SSW
NOSS 2-3 (D) 4.1 21:37:25 10° SW 21:42:04 71° NW 21:47:32 10° NNE
SAR-Lupe-1 3.9 21:45:10 66° ESE 21:45:27 71° ENE 21:49:01 10° N
Abrixas rocket 4.3 21:42:58 10° NW 21:45:39 23° N 21:47:01 18° NE
SL-08 RB Rocket 4.1 21:45:27 40° E 21:46:11 44° ENE 21:50:32 10° N
Cosmos 1975 4.3 21:47:29 24° ENE 21:47:29 24° ENE 21:49:41 10° NNE
ARGOS 3.2 21:45:46 38° SE 21:47:41 62° ENE 21:52:59 10° N
Terra 3.5 21:50:12 19° ENE 21:50:16 19° ENE 21:53:35 10° NNE
Cosmos 2278 Rocket 4.3 21:48:53 10° NNE 21:51:36 13° NE 21:53:25 12° ENE
Cosmos 2263 Rocket 2.5 21:47:23 10° NNW 21:53:01 64° WSW 21:55:53 29° S
Cosmos 2322 Rocket 3.3 21:47:57 10° SW 21:53:24 45° WNW 21:58:52 10° NNE
Cosmos 2237 4.4 21:52:58 41° SE 21:54:11 48° ESE 21:59:39 10° NE
Cosmos 1302 Rocket 4.5 21:55:19 40° E 21:55:19 40° E 22:00:00 10° NE
Cosmos 1844 Rocket 3.5 21:55:47 10° N 22:00:57 34° ENE 22:02:00 32° E
Cosmos 1244 Rocket 4.3 21:59:55 33° S 22:02:51 74° E 22:08:59 10° N
Cosmos 1455 Rocket 4.3 22:04:09 29° ENE 22:04:09 29° ENE 22:06:57 10° NNE
Cosmos 1110 Rocket 3.9 21:58:42 12° SSW 22:03:26 84° WNW 22:08:38 10° NNE
SL-16 R/B 3.7 21:59:00 10° SW 22:04:12 37° WNW 22:09:28 10° N
Cosmos 1515 3.7 22:04:17 10° N 22:07:55 78° NW 22:07:55 78° NW
ATLAS 2AS CENTAUR R/B 3.2 22:00:47 10° SW 22:08:29 75° NW 22:16:40 10° NNE
Cosmos 2322 3.6 22:08:48 17° SSW 22:13:11 89° ESE 22:18:54 10° NNE
Cosmos 2219 Rocket 3.7 22:16:11 21° ENE 22:16:11 21° ENE 22:18:31 10° NE
Cosmos 1331 Rocket 4.2 22:14:52 20° SSW 22:18:29 70° WNW 22:23:44 10° NNE
Helios 1B rocket 4.5 22:15:15 10° N 22:18:44 27° WNW 22:22:11 10° SW
Cosmos 1238 Rocket 4.0 22:12:47 10° N 22:19:35 82° E 22:21:22 51° SSE
COSMOS 2428 2.8 22:22:18 56° E 22:22:18 56° E 22:27:33 10° NNE
Cosmos 1500 3.8 22:24:18 56° NW 22:24:18 56° NW 22:27:37 10° N
SL-08 R/B 4.4 22:22:32 55° SSE 22:23:48 70° E 22:30:07 10° NNE
Aureole 3 Rocket 4.3 22:18:01 10° N 22:26:47 87° E 22:28:50 50° S
Cosmos 2360 Rocket 2.7 22:21:46 10° SW 22:27:19 58° WNW 22:32:53 10° NNE
YAOGAN 11 4.2 22:28:58 72° WNW 22:28:58 72° WNW 22:33:03 10° NNW
Tiangong 1 4.2 22:26:21 10° W 22:26:22 10° W 22:26:22 10° W
Cosmos 1025 Rocket 4.4 22:28:16 10° NNW 22:32:03 31° W 22:32:56 29° WSW
SPOT 1/Viking Rocket 3.4 22:31:55 77° S 22:32:18 85° WSW 22:37:34 10° NNW
Cosmos 1844 4.1 22:27:26 10° NNW 22:32:54 47° ENE 22:33:04 47° ENE
Cosmos 2333 Rocket 3.7 22:38:20 23° ENE 22:38:20 23° ENE 22:40:43 10° NE
SPOT 5 3.2 22:35:22 57° WSW 22:35:44 58° WSW 22:40:25 10° NNW
Cosmos 2333 4.1 22:44:54 73° NE 22:44:54 73° NE 22:50:03 10° NNE
Lacrosse 5 3.0 22:39:45 10° WSW 22:44:34 42° NW 22:49:24 10° NE
BREEZE-M DEB 4.0 22:41:46 10° WNW 22:46:59 43° NNW 22:46:59 43° NNW
Nimbus 7 Rocket 4.4 22:41:50 10° NNE 22:47:42 81° WNW 22:48:39 64° SW
H-2A R/B 3.8 22:50:04 26° NNE 22:50:04 26° NNE 22:52:25 10° N
Cosmos 1503 Rocket 4.4 22:48:53 10° NNW 22:53:32 58° NNE 22:53:32 58° NNE
Cosmos 1745 Rocket 3.9 22:55:56 74° SW 22:56:26 81° W 23:02:37 10° N
Cosmos 2237 Rocket 4.0 23:00:29 20° NE 23:00:29 20° NE 23:02:23 10° NE
Atlas Centaur 2 4.3 22:54:30 10° WSW 22:58:00 20° SW 22:58:00 20° SW
NOSS 3-2 (A) 3.9 22:57:39 10° NNW 23:05:13 79° NE 23:06:18 68° ESE
USA 238 DEB 3.9 22:58:56 10° NW 23:05:53 60° WSW 23:06:30 58° SW
USA 238 3.9 22:59:01 10° NW 23:05:59 60° WSW 23:06:37 58° SW
H-2A R/B 3.2 23:10:31 34° W 23:10:31 34° W 23:15:01 10° NNW
Meteor 1-21 4.5 23:10:47 10° NNW 23:15:36 66° NNW 23:15:36 66° NNW
ATLAS 3B R/B 3.5 23:19:28 10° NW 23:25:20 36° WSW 23:25:20 36° WSW
Terra 3.2 23:29:05 36° NW 23:29:05 36° NW 23:32:14 10° NNW
Cosmos 2278 Rocket 2.9 23:30:58 10° NNW 23:35:15 52° N 23:35:15 52° N
NOSS 3-2 (C) 3.9 23:35:23 10° NW 23:42:56 82° WSW 23:42:56 82° WSW
Cosmos 1844 Rocket 4.0 23:39:42 10° NW 23:43:39 32° W 23:43:39 32° W
ATLAS CENTAUR R/B 4.4 23:45:52 10° N 23:45:53 10° N 23:45:53 10° N
